Location: Unspecified
(43.4000°N, 0.0000°E)
Time: 00:21:16
(UTC+00:00)

POLYITAN 1 - Visible Passes

Search period start: 21 July 2019 00:00
Search period end: 31 July 2019 00:00
Orbit: 592 x 611 km, 97.9° (Epoch: 20 July)

Date Brightness Start Highest point End Pass type
(mag) Time Alt. Az. Time Alt. Az. Time Alt. Az.
21 Jul ? 01:11:51 10° N 01:15:52 40° WNW 01:15:54 40° WNW visible
21 Jul ? 23:48:15 10° NE 23:50:55 23° ENE 23:50:55 23° ENE visible
22 Jul ? 01:23:44 10° N 01:27:31 31° WNW 01:27:42 31° WNW visible
22 Jul ? 23:59:42 10° NNE 00:02:42 29° ENE 00:02:42 29° ENE visible
23 Jul ? 01:35:43 10° NNW 01:39:10 24° WNW 01:39:30 24° WNW visible
24 Jul ? 00:11:15 10° NNE 00:14:30 38° ENE 00:14:30 38° ENE visible
24 Jul ? 01:47:47 10° NNW 01:50:47 19° WNW 01:51:17 18° WNW visible
25 Jul ? 00:22:51 10° NNE 00:26:18 49° NE 00:26:18 49° NE visible
25 Jul ? 02:00:01 10° NNW 02:02:23 15° WNW 02:03:05 14° WNW visible
26 Jul ? 00:34:32 10° NNE 00:38:06 59° NNE 00:38:06 59° NNE visible
26 Jul ? 02:12:40 10° NW 02:13:56 11° WNW 02:14:53 11° WNW visible
27 Jul ? 00:46:16 10° N 00:49:53 61° N 00:49:53 61° N visible
27 Jul ? 23:24:04 10° ENE 23:24:53 12° ENE 23:24:53 12° ENE visible
28 Jul ? 00:58:02 10° N 01:01:40 52° NW 01:01:40 52° NW visible
28 Jul ? 23:35:05 10° NE 23:36:40 16° ENE 23:36:40 16° ENE visible
29 Jul ? 01:09:52 10° N 01:13:28 41° NW 01:13:28 41° NW visible
29 Jul ? 23:46:22 10° NE 23:48:28 20° ENE 23:48:28 20° ENE visible
30 Jul ? 01:21:45 10° N 01:25:15 32° WNW 01:25:15 32° WNW visible
